Hourly Data Report for March 18, 2020

All times are specified in Local Standard Time (LST). Add 1 hour to adjust for Daylight Saving Time where and when it is observed.

OTTAWA INTL A
ONTARIO
Current Station Operator: NAVCAN

45°19'00.000" N
75°40'00.000" W
114.90 m
6106001
71628
YOW

Download Data

Hourly Data (March 2020)
Hourly Data Report for March 18, 2020
TIME Temp Definition
°C
Dew Point Definition
°C
Rel Hum Definition
%
Wind Dir Definition
10's deg

Wind Spd Definition
km/h
Visibility Definition
km
Stn Press Definition
kPa
Hmdx Definition


Wind Chill Definition


Weather Definition


00:00 0.0 -7.7 57 27 18 24.1 101.02   -5 LegendNANA
01:00 -0.6 -7.9 58 27 14 24.1 101.14   -5 Clear
02:00 -1.5 -7.6 63 28 12 24.1 101.22   -6 LegendNANA
03:00 -2.2 -7.5 67 28 10 24.1 101.29   -6 LegendNANA
04:00 -2.7 -7.7 69 34 8 24.1 101.35   -6 Clear
05:00 -2.7 -7.0 72 36 10 24.1 101.50   -7 LegendNANA
06:00 -3.5 -7.2 75 5 10 24.1 101.55   -7 LegendNANA
07:00 -2.6 -8.1 66 8 8 24.1 101.64   -6 Mainly Clear
08:00 -1.6 -9.6 55 7 13 24.1 101.75   -6 LegendNANA
09:00 -0.9 -11.3 45 8 14 24.1 101.82   -5 LegendNANA
10:00 0.0 -11.3 42 7 13 24.1 101.75   -4 Mainly Clear
11:00 0.7 -9.1 48 11 13 24.1 101.77     LegendNANA
12:00 1.5 -9.4 44 8 8 24.1 101.70     LegendNANA
13:00 2.5 -8.3 45 15 12 24.1 101.66     Mostly Cloudy
14:00 2.8 -8.0 45 8 5 24.1 101.64     LegendNANA
15:00 2.8 -5.8 53 5 14 24.1 101.53     LegendNANA
16:00 2.5 -5.7 55 8 13 24.1 101.49     Mostly Cloudy
17:00 2.0 -6.5 54 5 14 24.1 101.50     LegendNANA
18:00 1.3 -6.4 56 5 13 24.1 101.53     LegendNANA
19:00 0.7 -6.3 60 6 16 24.1 101.50     Cloudy
20:00 0.4 -5.7 64 7 16 24.1 101.46     LegendNANA
21:00 0.1 -6.0 63 6 14 24.1 101.42     LegendNANA
22:00 -0.6 -5.5 69 4 15 24.1 101.34   -5 Cloudy
23:00 -0.6 -6.2 66 6 15 24.1 101.28   -5 LegendNANA

Notes on Data Quality.

Legend

  • E = Estimated
  • M = Missing
  • NA = Not Available*
  • [empty] = Indicates an unobserved value
Date modified: